Time,TemperatureF,DewpointF,PressureIn,WindDirection,WindDirectionDegrees,WindSpeedMPH,WindSpeedGustMPH,Humidity,HourlyPrecipIn,Conditions,Clouds,dailyrainin,SoftwareType,DateUTC
2013-06-30 00:02:00,77.9,48.0,29.90,SW,225,1.8,2.5,35,0.00,,,0.00,WUHU216HW,2013-06-30 07:02:00,
2013-06-30 00:07:00,77.8,47.8,29.91,WSW,248,1.6,2.5,35,0.00,,,0.00,WUHU216HW,2013-06-30 07:07:00,
2013-06-30 00:12:00,77.6,47.6,29.90,WSW,248,2.2,2.2,35,0.00,,,0.00,WUHU216HW,2013-06-30 07:12:00,
2013-06-30 00:17:00,77.6,47.6,29.91,WSW,248,2.5,2.5,35,0.00,,,0.00,WUHU216HW,2013-06-30 07:17:00,
2013-06-30 00:22:00,77.4,47.4,29.89,West,270,2.5,2.5,35,0.00,,,0.00,WUHU216HW,2013-06-30 07:22:00,
2013-06-30 00:27:00,77.2,47.4,29.89,WSW,248,2.5,2.5,35,0.00,,,0.00,WUHU216HW,2013-06-30 07:27:00,
2013-06-30 00:32:00,77.0,47.2,29.88,West,270,1.6,2.5,35,0.00,,,0.00,WUHU216HW,2013-06-30 07:32:00,
2013-06-30 00:37:00,76.9,47.0,29.90,West,270,2.9,3.8,35,0.00,,,0.00,WUHU216HW,2013-06-30 07:37:00,
2013-06-30 00:43:00,76.7,47.6,29.90,WSW,248,1.8,3.8,36,0.00,,,0.00,WUHU216HW,2013-06-30 07:43:00,
2013-06-30 00:48:00,76.3,48.1,29.89,West,270,1.8,3.6,37,0.00,,,0.00,WUHU216HW,2013-06-30 07:48:00,
2013-06-30 00:53:00,76.1,47.9,29.90,WSW,248,2.5,3.4,37,0.00,,,0.00,WUHU216HW,2013-06-30 07:53:00,
2013-06-30 00:58:00,76.0,47.7,29.89,WSW,248,2.9,2.9,37,0.00,,,0.00,WUHU216HW,2013-06-30 07:58:00,
2013-06-30 01:03:00,75.8,47.5,29.88,WSW,248,2.5,2.9,37,0.00,,,0.00,WUHU216HW,2013-06-30 08:03:00,
2013-06-30 01:08:00,75.8,47.5,29.88,WSW,248,1.3,2.7,37,0.00,,,0.00,WUHU216HW,2013-06-30 08:08:00,
2013-06-30 01:13:00,75.6,47.3,29.88,WSW,248,1.3,2.7,37,0.00,,,0.00,WUHU216HW,2013-06-30 08:13:00,
2013-06-30 01:18:00,75.4,47.3,29.88,WNW,293,1.3,2.5,37,0.00,,,0.00,WUHU216HW,2013-06-30 08:18:00,
2013-06-30 01:23:00,75.4,47.3,29.88,WSW,248,1.8,2.7,37,0.00,,,0.00,WUHU216HW,2013-06-30 08:23:00,
2013-06-30 01:28:00,75.4,47.3,29.88,WSW,248,1.6,2.7,37,0.00,,,0.00,WUHU216HW,2013-06-30 08:28:00,
2013-06-30 01:33:00,75.4,47.3,29.89,WSW,248,1.3,2.2,37,0.00,,,0.00,WUHU216HW,2013-06-30 08:33:00,
2013-06-30 01:39:00,75.2,47.1,29.89,WSW,248,1.6,2.2,37,0.00,,,0.00,WUHU216HW,2013-06-30 08:39:00,
2013-06-30 01:44:00,75.2,47.1,29.87,West,270,1.3,1.8,37,0.00,,,0.00,WUHU216HW,2013-06-30 08:44:00,
2013-06-30 01:49:00,75.2,47.1,29.88,West,270,2.5,2.5,37,0.00,,,0.00,WUHU216HW,2013-06-30 08:49:00,
2013-06-30 01:54:00,74.9,47.5,29.88,West,270,2.2,2.5,38,0.00,,,0.00,WUHU216HW,2013-06-30 08:54:00,
2013-06-30 01:59:00,74.5,47.2,29.87,West,270,1.6,2.7,38,0.00,,,0.00,WUHU216HW,2013-06-30 08:59:00,
2013-06-30 02:04:00,74.3,47.0,29.86,West,270,2.7,3.6,38,0.00,,,0.00,WUHU216HW,2013-06-30 09:04:00,
2013-06-30 02:09:00,73.8,47.3,29.86,West,270,2.5,3.6,39,0.00,,,0.00,WUHU216HW,2013-06-30 09:09:00,
2013-06-30 02:14:00,73.4,47.0,29.87,West,270,2.9,3.4,39,0.00,,,0.00,WUHU216HW,2013-06-30 09:14:00,
2013-06-30 02:20:00,73.3,47.5,29.86,WSW,248,2.5,3.4,40,0.00,,,0.00,WUHU216HW,2013-06-30 09:20:00,
2013-06-30 02:25:00,72.9,47.3,29.85,WSW,248,2.2,3.6,40,0.00,,,0.00,WUHU216HW,2013-06-30 09:25:00,
2013-06-30 02:30:00,72.7,47.1,29.86,WSW,248,2.9,3.6,40,0.00,,,0.00,WUHU216HW,2013-06-30 09:30:00,
2013-06-30 02:35:00,72.7,47.1,29.85,WSW,248,2.5,3.1,40,0.00,,,0.00,WUHU216HW,2013-06-30 09:35:00,
2013-06-30 02:40:00,72.7,47.1,29.86,WSW,248,2.5,3.1,40,0.00,,,0.00,WUHU216HW,2013-06-30 09:40:00,
2013-06-30 02:45:00,72.5,46.9,29.86,WSW,248,2.5,2.9,40,0.00,,,0.00,WUHU216HW,2013-06-30 09:45:00,
2013-06-30 02:50:00,72.4,47.4,29.86,West,270,2.5,2.9,41,0.00,,,0.00,WUHU216HW,2013-06-30 09:50:00,
2013-06-30 02:56:00,72.0,47.0,29.86,WSW,248,2.5,3.4,41,0.00,,,0.00,WUHU216HW,2013-06-30 09:56:00,
2013-06-30 03:01:00,71.5,46.5,29.86,WSW,248,1.8,3.4,41,0.00,,,0.00,WUHU216HW,2013-06-30 10:01:00,
2013-06-30 03:06:00,71.5,46.5,29.85,West,270,1.8,3.4,41,0.00,,,0.00,WUHU216HW,2013-06-30 10:06:00,
2013-06-30 03:11:00,71.5,46.5,29.85,WSW,248,2.5,2.9,41,0.00,,,0.00,WUHU216HW,2013-06-30 10:11:00,
2013-06-30 03:16:00,71.5,46.5,29.86,WSW,248,1.8,2.5,41,0.00,,,0.00,WUHU216HW,2013-06-30 10:16:00,
2013-06-30 03:21:00,71.6,46.7,29.85,WSW,248,2.0,2.5,41,0.00,,,0.00,WUHU216HW,2013-06-30 10:21:00,
2013-06-30 03:26:00,71.6,46.7,29.85,WSW,248,2.5,2.5,41,0.00,,,0.00,WUHU216HW,2013-06-30 10:26:00,
2013-06-30 03:31:00,71.3,46.4,29.86,WSW,248,3.6,3.6,41,0.00,,,0.00,WUHU216HW,2013-06-30 10:31:00,
2013-06-30 03:36:00,71.3,46.4,29.85,WSW,248,2.7,3.6,41,0.00,,,0.00,WUHU216HW,2013-06-30 10:36:00,
2013-06-30 03:42:00,71.3,46.4,29.84,WSW,248,2.5,3.6,41,0.00,,,0.00,WUHU216HW,2013-06-30 10:42:00,
2013-06-30 03:47:00,71.5,46.5,29.86,WSW,248,3.6,3.6,41,0.00,,,0.00,WUHU216HW,2013-06-30 10:47:00,
2013-06-30 03:52:00,71.6,46.7,29.84,WSW,248,3.1,4.0,41,0.00,,,0.00,WUHU216HW,2013-06-30 10:52:00,
2013-06-30 03:57:00,71.8,46.3,29.85,WSW,248,3.4,4.0,40,0.00,,,0.00,WUHU216HW,2013-06-30 10:57:00,
2013-06-30 04:02:00,71.8,46.8,29.85,SW,225,3.4,3.6,41,0.00,,,0.00,WUHU216HW,2013-06-30 11:02:00,
2013-06-30 04:07:00,71.6,46.7,29.84,WSW,248,3.1,3.6,41,0.00,,,0.00,WUHU216HW,2013-06-30 11:07:00,
2013-06-30 04:12:00,71.6,46.7,29.86,WSW,248,3.4,3.6,41,0.00,,,0.00,WUHU216HW,2013-06-30 11:12:00,
2013-06-30 04:17:00,71.6,46.7,29.85,WSW,248,3.6,3.8,41,0.00,,,0.00,WUHU216HW,2013-06-30 11:17:00,
2013-06-30 04:23:00,71.6,46.7,29.85,WSW,248,4.0,4.0,41,0.00,,,0.00,WUHU216HW,2013-06-30 11:23:00,
2013-06-30 04:28:00,71.6,46.1,29.85,WSW,248,3.4,4.0,40,0.00,,,0.00,WUHU216HW,2013-06-30 11:28:00,
2013-06-30 04:33:00,71.8,46.3,29.85,WSW,248,3.8,3.8,40,0.00,,,0.00,WUHU216HW,2013-06-30 11:33:00,
2013-06-30 04:38:00,71.8,46.3,29.85,WSW,248,3.8,3.8,40,0.00,,,0.00,WUHU216HW,2013-06-30 11:38:00,
2013-06-30 04:43:00,71.8,46.3,29.85,SW,225,2.5,3.8,40,0.00,,,0.00,WUHU216HW,2013-06-30 11:43:00,
2013-06-30 04:48:00,71.6,46.1,29.84,WSW,248,2.5,3.6,40,0.00,,,0.00,WUHU216HW,2013-06-30 11:48:00,
2013-06-30 04:53:00,71.6,46.1,29.86,WSW,248,1.8,2.7,40,0.00,,,0.00,WUHU216HW,2013-06-30 11:53:00,
2013-06-30 04:58:00,71.6,46.1,29.84,WSW,248,2.5,3.1,40,0.00,,,0.00,WUHU216HW,2013-06-30 11:58:00,
2013-06-30 05:03:00,71.6,46.1,29.85,WSW,248,2.7,3.1,40,0.00,,,0.00,WUHU216HW,2013-06-30 12:03:00,
2013-06-30 05:08:00,71.6,45.4,29.84,West,270,2.5,2.7,39,0.00,,,0.00,WUHU216HW,2013-06-30 12:08:00,
2013-06-30 05:14:00,71.6,45.4,29.85,WSW,248,2.2,2.9,39,0.00,,,0.00,WUHU216HW,2013-06-30 12:14:00,
2013-06-30 05:19:00,71.8,45.6,29.85,WSW,248,2.9,3.4,39,0.00,,,0.00,WUHU216HW,2013-06-30 12:19:00,
2013-06-30 05:24:00,71.8,45.6,29.87,West,270,3.4,3.4,39,0.00,,,0.00,WUHU216HW,2013-06-30 12:24:00,
2013-06-30 05:29:00,71.8,44.7,29.88,WSW,248,3.4,3.6,38,0.00,,,0.00,WUHU216HW,2013-06-30 12:29:00,
2013-06-30 05:34:00,71.8,44.7,29.88,WSW,248,2.7,3.6,38,0.00,,,0.00,WUHU216HW,2013-06-30 12:34:00,
2013-06-30 05:39:00,71.8,44.7,29.89,West,270,2.0,3.6,38,0.00,,,0.00,WUHU216HW,2013-06-30 12:39:00,
2013-06-30 05:44:00,72.0,44.2,29.88,WSW,248,3.6,3.6,37,0.00,,,0.00,WUHU216HW,2013-06-30 12:44:00,
2013-06-30 05:49:00,72.0,44.2,29.88,WSW,248,3.1,3.6,37,0.00,,,0.00,WUHU216HW,2013-06-30 12:49:00,
2013-06-30 05:54:00,72.2,44.4,29.88,West,270,3.4,3.4,37,0.00,,,0.00,WUHU216HW,2013-06-30 12:54:00,
2013-06-30 06:00:00,72.2,44.4,29.88,WSW,248,2.7,3.4,37,0.00,,,0.00,WUHU216HW,2013-06-30 13:00:00,
2013-06-30 06:05:00,72.4,43.7,29.88,West,270,2.5,3.4,36,0.00,,,0.00,WUHU216HW,2013-06-30 13:05:00,
2013-06-30 06:10:00,72.4,44.5,29.88,West,270,2.0,2.7,37,0.00,,,0.00,WUHU216HW,2013-06-30 13:10:00,
2013-06-30 06:15:00,72.4,43.7,29.89,West,270,2.7,2.9,36,0.00,,,0.00,WUHU216HW,2013-06-30 13:15:00,
2013-06-30 06:20:00,72.5,44.6,29.88,West,270,2.2,2.9,37,0.00,,,0.00,WUHU216HW,2013-06-30 13:20:00,
2013-06-30 06:25:00,72.5,43.9,29.88,West,270,2.2,2.9,36,0.00,,,0.00,WUHU216HW,2013-06-30 13:25:00,
2013-06-30 06:30:00,72.5,44.6,29.88,WSW,248,2.5,3.6,37,0.00,,,0.00,WUHU216HW,2013-06-30 13:30:00,
2013-06-30 06:35:00,72.5,44.6,29.89,WSW,248,2.7,3.6,37,0.00,,,0.00,WUHU216HW,2013-06-30 13:35:00,
2013-06-30 06:40:00,72.7,44.8,29.89,West,270,2.7,3.4,37,0.00,,,0.00,WUHU216HW,2013-06-30 13:40:00,
2013-06-30 06:46:00,72.9,44.2,29.87,West,270,3.1,3.6,36,0.00,,,0.00,WUHU216HW,2013-06-30 13:46:00,
2013-06-30 06:51:00,73.1,43.7,29.86,West,270,2.7,3.6,35,0.00,,,0.00,WUHU216HW,2013-06-30 13:51:00,
2013-06-30 06:56:00,73.4,43.9,29.86,West,270,2.9,3.8,35,0.00,,,0.00,WUHU216HW,2013-06-30 13:56:00,
2013-06-30 07:01:00,73.8,44.3,29.86,WSW,248,2.5,3.8,35,0.00,,,0.00,WUHU216HW,2013-06-30 14:01:00,
2013-06-30 07:06:00,74.2,44.6,29.86,West,270,2.9,2.9,35,0.00,,,0.00,WUHU216HW,2013-06-30 14:06:00,
2013-06-30 07:11:00,74.5,44.1,29.86,West,270,2.5,3.4,34,0.00,,,0.00,WUHU216HW,2013-06-30 14:11:00,
2013-06-30 07:16:00,74.7,44.3,29.87,WSW,248,2.9,3.4,34,0.00,,,0.00,WUHU216HW,2013-06-30 14:16:00,
2013-06-30 07:21:00,74.9,44.5,29.87,West,270,3.4,4.0,34,0.00,,,0.00,WUHU216HW,2013-06-30 14:21:00,
2013-06-30 07:26:00,75.1,44.7,29.87,West,270,2.9,4.0,34,0.00,,,0.00,WUHU216HW,2013-06-30 14:26:00,
2013-06-30 07:32:00,75.2,44.8,29.88,West,270,3.1,4.0,34,0.00,,,0.00,WUHU216HW,2013-06-30 14:32:00,
2013-06-30 07:37:00,75.6,45.1,29.87,WSW,248,3.4,3.4,34,0.00,,,0.00,WUHU216HW,2013-06-30 14:37:00,
2013-06-30 07:42:00,76.0,44.6,29.87,West,270,3.1,3.4,33,0.00,,,0.00,WUHU216HW,2013-06-30 14:42:00,
2013-06-30 07:47:00,76.5,45.2,29.87,West,270,1.6,3.4,33,0.00,,,0.00,WUHU216HW,2013-06-30 14:47:00,
2013-06-30 07:52:00,77.0,45.6,29.87,West,270,1.3,2.5,33,0.00,,,0.00,WUHU216HW,2013-06-30 14:52:00,
2013-06-30 07:57:00,77.4,45.2,29.88,West,270,1.1,2.5,32,0.00,,,0.00,WUHU216HW,2013-06-30 14:57:00,
2013-06-30 08:02:00,77.9,48.0,29.88,NW,315,0.2,1.8,35,0.00,,,0.00,WUHU216HW,2013-06-30 15:02:00,
2013-06-30 08:07:00,78.1,51.1,29.88,North,0,0.4,1.6,39,0.00,,,0.00,WUHU216HW,2013-06-30 15:07:00,
2013-06-30 08:12:00,77.8,52.2,29.88,NE,45,1.3,1.3,41,0.00,,,0.00,WUHU216HW,2013-06-30 15:12:00,
2013-06-30 08:17:00,77.2,53.6,29.88,NE,45,1.1,1.3,44,0.00,,,0.00,WUHU216HW,2013-06-30 15:17:00,
2013-06-30 08:22:00,77.2,53.6,29.89,ENE,68,1.1,1.1,44,0.00,,,0.00,WUHU216HW,2013-06-30 15:22:00,
2013-06-30 08:28:00,77.4,54.4,29.88,ENE,68,1.1,1.3,45,0.00,,,0.00,WUHU216HW,2013-06-30 15:28:00,
2013-06-30 08:33:00,77.4,54.4,29.89,ENE,68,1.6,1.8,45,0.00,,,0.00,WUHU216HW,2013-06-30 15:33:00,
2013-06-30 08:38:00,77.4,54.4,29.89,NNE,23,0.2,1.8,45,0.00,,,0.00,WUHU216HW,2013-06-30 15:38:00,
2013-06-30 08:43:00,77.4,54.9,29.88,NNE,23,0.4,1.1,46,0.00,,,0.00,WUHU216HW,2013-06-30 15:43:00,
2013-06-30 08:48:00,77.8,55.3,29.89,NE,45,1.1,1.1,46,0.00,,,0.00,WUHU216HW,2013-06-30 15:48:00,
2013-06-30 08:53:00,78.3,55.7,29.90,NNE,23,1.8,1.8,46,0.00,,,0.00,WUHU216HW,2013-06-30 15:53:00,
2013-06-30 08:58:00,78.5,55.9,29.88,East,90,0.4,1.8,46,0.00,,,0.00,WUHU216HW,2013-06-30 15:58:00,
2013-06-30 09:03:00,78.8,56.3,29.88,NNE,23,1.1,1.1,46,0.00,,,0.00,WUHU216HW,2013-06-30 16:03:00,
2013-06-30 09:08:00,79.4,56.7,29.88,NE,45,1.1,1.3,46,0.00,,,0.00,WUHU216HW,2013-06-30 16:08:00,
2013-06-30 09:13:00,79.9,57.3,29.89,NNE,23,1.1,1.3,46,0.00,,,0.00,WUHU216HW,2013-06-30 16:13:00,
2013-06-30 09:14:00,80.1,57.3,29.88,North,0,1.1,1.3,46,0.00,,,0.00,WUHU216HW,2013-06-30 16:14:00,
2013-06-30 09:19:00,80.5,57.7,29.86,NNE,23,1.3,1.8,46,0.00,,,0.00,WUHU216HW,2013-06-30 16:19:00,
2013-06-30 09:24:00,81.0,58.1,29.87,NNE,23,1.1,1.8,46,0.00,,,0.00,WUHU216HW,2013-06-30 16:24:00,
2013-06-30 09:30:00,81.5,58.1,29.88,NNE,23,2.0,2.0,45,0.00,,,0.00,WUHU216HW,2013-06-30 16:30:00,
2013-06-30 09:35:00,81.7,58.2,29.87,ENE,68,1.1,2.0,45,0.00,,,0.00,WUHU216HW,2013-06-30 16:35:00,
2013-06-30 09:40:00,81.5,58.1,29.88,NNE,23,2.0,2.0,45,0.00,,,0.00,WUHU216HW,2013-06-30 16:40:00,
2013-06-30 09:45:00,81.2,57.7,29.88,North,0,1.8,2.0,45,0.00,,,0.00,WUHU216HW,2013-06-30 16:45:00,
2013-06-30 09:50:00,80.5,57.7,29.87,NNE,23,1.6,2.5,46,0.00,,,0.00,WUHU216HW,2013-06-30 16:50:00,
2013-06-30 09:55:00,80.5,58.3,29.88,ENE,68,0.7,2.5,47,0.00,,,0.00,WUHU216HW,2013-06-30 16:55:00,
2013-06-30 10:00:00,81.0,58.1,29.89,ENE,68,0.4,1.8,46,0.00,,,0.00,WUHU216HW,2013-06-30 17:00:00,
2013-06-30 10:05:00,81.4,58.5,29.88,NNE,23,1.1,1.8,46,0.00,,,0.00,WUHU216HW,2013-06-30 17:05:00,
2013-06-30 10:10:00,81.9,58.4,29.88,NNE,23,1.8,1.8,45,0.00,,,0.00,WUHU216HW,2013-06-30 17:10:00,
2013-06-30 10:15:00,81.9,58.4,29.87,NNE,23,2.7,2.7,45,0.00,,,0.00,WUHU216HW,2013-06-30 17:15:00,
2013-06-30 10:20:00,81.4,57.9,29.88,North,0,2.0,2.7,45,0.00,,,0.00,WUHU216HW,2013-06-30 17:20:00,
2013-06-30 10:25:00,80.8,58.1,29.88,NNE,23,1.6,3.8,46,0.00,,,0.00,WUHU216HW,2013-06-30 17:25:00,
2013-06-30 10:30:00,80.6,57.9,29.87,NNW,338,1.8,3.8,46,0.00,,,0.00,WUHU216HW,2013-06-30 17:30:00,
2013-06-30 10:35:00,81.0,58.1,29.88,NNE,23,1.6,3.1,46,0.00,,,0.00,WUHU216HW,2013-06-30 17:35:00,
2013-06-30 10:40:00,81.4,58.5,29.88,ENE,68,1.6,1.8,46,0.00,,,0.00,WUHU216HW,2013-06-30 17:40:00,
2013-06-30 10:45:00,81.7,58.2,29.88,East,90,1.1,1.8,45,0.00,,,0.00,WUHU216HW,2013-06-30 17:45:00,
2013-06-30 10:51:00,82.3,58.7,29.86,ENE,68,1.1,1.8,45,0.00,,,0.00,WUHU216HW,2013-06-30 17:51:00,
2013-06-30 10:56:00,83.0,58.8,29.86,ESE,113,0.9,1.8,44,0.00,,,0.00,WUHU216HW,2013-06-30 17:56:00,
2013-06-30 11:01:00,84.1,58.5,29.88,NNW,338,1.1,1.8,42,0.00,,,0.00,WUHU216HW,2013-06-30 18:01:00,
2013-06-30 11:06:00,85.0,58.7,29.87,SSE,158,1.8,2.5,41,0.00,,,0.00,WUHU216HW,2013-06-30 18:06:00,
2013-06-30 11:11:00,85.5,59.2,29.87,NE,45,1.1,2.5,41,0.00,,,0.00,WUHU216HW,2013-06-30 18:11:00,
2013-06-30 11:16:00,85.7,59.3,29.88,North,0,2.9,2.9,41,0.00,,,0.00,WUHU216HW,2013-06-30 18:16:00,
2013-06-30 11:21:00,85.7,59.3,29.88,NNW,338,0.7,2.9,41,0.00,,,0.00,WUHU216HW,2013-06-30 18:21:00,
2013-06-30 11:26:00,85.7,59.3,29.88,North,0,1.1,2.5,41,0.00,,,0.00,WUHU216HW,2013-06-30 18:26:00,
2013-06-30 11:31:00,86.0,60.3,29.88,North,0,1.1,1.6,42,0.00,,,0.00,WUHU216HW,2013-06-30 18:31:00,
2013-06-30 11:36:00,86.6,60.1,29.89,North,0,1.3,1.3,41,0.00,,,0.00,WUHU216HW,2013-06-30 18:36:00,
2013-06-30 11:42:00,87.1,60.7,29.88,NNW,338,1.6,2.7,41,0.00,,,0.00,WUHU216HW,2013-06-30 18:42:00,
2013-06-30 11:47:00,87.1,60.0,29.88,NNW,338,0.7,2.7,40,0.00,,,0.00,WUHU216HW,2013-06-30 18:47:00,
2013-06-30 11:52:00,86.8,58.9,29.88,NNW,338,1.8,1.8,39,0.00,,,0.00,WUHU216HW,2013-06-30 18:52:00,
2013-06-30 11:57:00,86.0,59.7,29.88,West,270,0.4,1.8,41,0.00,,,0.00,WUHU216HW,2013-06-30 18:57:00,
2013-06-30 12:02:00,86.4,58.6,29.88,NNW,338,1.8,1.8,39,0.00,,,0.00,WUHU216HW,2013-06-30 19:02:00,
2013-06-30 12:07:00,87.1,58.4,29.88,West,270,1.8,2.5,38,0.00,,,0.00,WUHU216HW,2013-06-30 19:07:00,
2013-06-30 12:12:00,88.4,57.9,29.88,NW,315,1.3,2.5,36,0.00,,,0.00,WUHU216HW,2013-06-30 19:12:00,
2013-06-30 12:17:00,88.9,58.3,29.88,North,0,1.3,2.2,36,0.00,,,0.00,WUHU216HW,2013-06-30 19:17:00,
2013-06-30 12:22:00,89.3,58.6,29.88,NE,45,2.5,2.5,36,0.00,,,0.00,WUHU216HW,2013-06-30 19:22:00,
2013-06-30 12:27:00,89.8,59.1,29.87,SW,225,1.1,2.7,36,0.00,,,0.00,WUHU216HW,2013-06-30 19:27:00,
2013-06-30 12:32:00,90.4,58.8,29.88,West,270,1.6,2.7,35,0.00,,,0.00,WUHU216HW,2013-06-30 19:32:00,
2013-06-30 12:37:00,90.9,58.5,29.88,NNE,23,1.1,2.2,34,0.00,,,0.00,WUHU216HW,2013-06-30 19:37:00,
2013-06-30 12:42:00,91.1,58.7,29.87,ENE,68,1.1,2.2,34,0.00,,,0.00,WUHU216HW,2013-06-30 19:42:00,
2013-06-30 12:47:00,91.1,59.4,29.88,NW,315,0.9,2.2,35,0.00,,,0.00,WUHU216HW,2013-06-30 19:47:00,
2013-06-30 12:52:00,91.4,59.8,29.87,North,0,4.7,4.7,35,0.00,,,0.00,WUHU216HW,2013-06-30 19:52:00,
2013-06-30 12:57:00,91.4,59.8,29.87,North,0,0.7,4.7,35,0.00,,,0.00,WUHU216HW,2013-06-30 19:57:00,
2013-06-30 13:02:00,91.8,59.3,29.87,North,0,1.3,3.4,34,0.00,,,0.00,WUHU216HW,2013-06-30 20:02:00,
2013-06-30 13:08:00,92.2,58.8,29.87,NE,45,1.8,3.4,33,0.00,,,0.00,WUHU216HW,2013-06-30 20:08:00,
2013-06-30 13:13:00,92.3,59.0,29.87,NNE,23,1.1,3.4,33,0.00,,,0.00,WUHU216HW,2013-06-30 20:13:00,
2013-06-30 13:18:00,92.7,59.2,29.88,WSW,248,0.7,1.8,33,0.00,,,0.00,WUHU216HW,2013-06-30 20:18:00,
2013-06-30 13:23:00,93.2,58.9,29.87,NW,315,1.1,2.5,32,0.00,,,0.00,WUHU216HW,2013-06-30 20:23:00,
2013-06-30 13:28:00,92.9,57.8,29.87,West,270,2.7,2.7,31,0.00,,,0.00,WUHU216HW,2013-06-30 20:28:00,
2013-06-30 13:33:00,92.3,59.0,29.87,NNW,338,0.9,2.7,33,0.00,,,0.00,WUHU216HW,2013-06-30 20:33:00,
2013-06-30 13:38:00,92.0,58.6,29.90,West,270,1.1,1.8,33,0.00,,,0.00,WUHU216HW,2013-06-30 20:38:00,
2013-06-30 13:43:00,92.0,57.1,29.91,West,270,1.6,1.8,31,0.00,,,0.00,WUHU216HW,2013-06-30 20:43:00,
2013-06-30 13:48:00,92.2,57.2,29.90,WNW,293,0.7,2.0,31,0.00,,,0.00,WUHU216HW,2013-06-30 20:48:00,
2013-06-30 13:53:00,92.3,56.5,29.90,NW,315,2.5,2.9,30,0.00,,,0.00,WUHU216HW,2013-06-30 20:53:00,
2013-06-30 13:58:00,92.5,56.7,29.88,NNE,23,1.1,2.9,30,0.00,,,0.00,WUHU216HW,2013-06-30 20:58:00,
2013-06-30 14:03:00,92.5,57.5,29.88,WNW,293,1.3,1.8,31,0.00,,,0.00,WUHU216HW,2013-06-30 21:03:00,
2013-06-30 14:08:00,92.0,57.1,29.88,NW,315,1.6,1.8,31,0.00,,,0.00,WUHU216HW,2013-06-30 21:08:00,
2013-06-30 14:13:00,91.6,57.5,29.87,South,180,0.7,2.9,32,0.00,,,0.00,WUHU216HW,2013-06-30 21:13:00,
2013-06-30 14:19:00,91.4,57.4,29.87,NE,45,2.7,2.9,32,0.00,,,0.00,WUHU216HW,2013-06-30 21:19:00,
2013-06-30 14:24:00,91.3,57.3,29.87,West,270,2.5,2.7,32,0.00,,,0.00,WUHU216HW,2013-06-30 21:24:00,
2013-06-30 14:29:00,91.1,57.1,29.88,NW,315,1.8,2.5,32,0.00,,,0.00,WUHU216HW,2013-06-30 21:29:00,
2013-06-30 14:34:00,91.1,57.1,29.87,North,0,1.1,1.8,32,0.00,,,0.00,WUHU216HW,2013-06-30 21:34:00,
2013-06-30 14:39:00,91.3,57.3,29.88,WNW,293,0.4,2.0,32,0.00,,,0.00,WUHU216HW,2013-06-30 21:39:00,
2013-06-30 14:44:00,91.4,56.6,29.87,WNW,293,0.9,2.0,31,0.00,,,0.00,WUHU216HW,2013-06-30 21:44:00,
2013-06-30 14:49:00,91.4,57.4,29.86,NNE,23,0.7,1.8,32,0.00,,,0.00,WUHU216HW,2013-06-30 21:49:00,
2013-06-30 14:54:00,91.3,58.1,29.87,North,0,1.3,2.2,33,0.00,,,0.00,WUHU216HW,2013-06-30 21:54:00,
2013-06-30 14:59:00,91.3,58.1,29.86,WSW,248,0.7,4.0,33,0.00,,,0.00,WUHU216HW,2013-06-30 21:59:00,
2013-06-30 15:04:00,91.4,58.1,29.86,East,90,2.5,4.0,33,0.00,,,0.00,WUHU216HW,2013-06-30 22:04:00,
2013-06-30 15:09:00,91.4,57.4,29.86,West,270,2.7,3.1,32,0.00,,,0.00,WUHU216HW,2013-06-30 22:09:00,
2013-06-30 15:14:00,91.1,56.3,29.86,WSW,248,1.8,5.4,31,0.00,,,0.00,WUHU216HW,2013-06-30 22:14:00,
2013-06-30 15:19:00,90.7,56.7,29.87,NNE,23,1.6,5.4,32,0.00,,,0.00,WUHU216HW,2013-06-30 22:19:00,
2013-06-30 15:20:00,90.7,56.7,29.87,NNE,23,1.6,5.4,32,0.00,,,0.00,WUHU216HW,2013-06-30 22:20:00,
2013-06-30 15:25:00,90.5,55.8,29.85,WSW,248,3.4,4.0,31,0.00,,,0.00,WUHU216HW,2013-06-30 22:25:00,
2013-06-30 15:30:00,90.4,56.4,29.85,WSW,248,2.0,4.0,32,0.00,,,0.00,WUHU216HW,2013-06-30 22:30:00,
2013-06-30 15:35:00,90.0,56.1,29.86,WSW,248,1.1,4.3,32,0.00,,,0.00,WUHU216HW,2013-06-30 22:35:00,
2013-06-30 15:40:00,89.6,56.5,29.86,West,270,1.8,4.3,33,0.00,,,0.00,WUHU216HW,2013-06-30 22:40:00,
2013-06-30 15:45:00,89.3,57.1,29.86,SW,225,0.4,4.7,34,0.00,,,0.00,WUHU216HW,2013-06-30 22:45:00,
2013-06-30 15:50:00,88.9,56.7,29.86,SW,225,1.6,4.7,34,0.00,,,0.00,WUHU216HW,2013-06-30 22:50:00,
2013-06-30 15:55:00,88.6,56.4,29.85,WSW,248,1.3,3.1,34,0.00,,,0.00,WUHU216HW,2013-06-30 22:55:00,
2013-06-30 16:00:00,88.4,56.3,29.86,NW,315,2.5,2.5,34,0.00,,,0.00,WUHU216HW,2013-06-30 23:00:00,
2013-06-30 16:05:00,87.8,55.8,29.89,NNW,338,1.3,4.3,34,0.00,,,0.00,WUHU216HW,2013-06-30 23:05:00,
2013-06-30 16:10:00,87.3,55.4,29.89,North,0,1.3,4.3,34,0.00,,,0.00,WUHU216HW,2013-06-30 23:10:00,
2013-06-30 16:15:00,87.1,55.2,29.89,NW,315,0.4,2.7,34,0.00,,,0.00,WUHU216HW,2013-06-30 23:15:00,
2013-06-30 16:20:00,86.9,55.1,29.88,East,90,1.8,2.5,34,0.00,,,0.00,WUHU216HW,2013-06-30 23:20:00,
2013-06-30 16:26:00,86.9,55.1,29.88,WNW,293,3.6,3.6,34,0.00,,,0.00,WUHU216HW,2013-06-30 23:26:00,
2013-06-30 16:31:00,86.4,54.6,29.86,NW,315,1.6,3.6,34,0.00,,,0.00,WUHU216HW,2013-06-30 23:31:00,
2013-06-30 16:36:00,86.4,55.4,29.86,WSW,248,1.8,3.6,35,0.00,,,0.00,WUHU216HW,2013-06-30 23:36:00,
2013-06-30 16:41:00,86.6,54.7,29.86,West,270,1.6,2.2,34,0.00,,,0.00,WUHU216HW,2013-06-30 23:41:00,
2013-06-30 16:46:00,86.0,54.3,29.86,West,270,1.3,2.2,34,0.00,,,0.00,WUHU216HW,2013-06-30 23:46:00,
2013-06-30 16:51:00,86.0,55.1,29.85,SSE,158,0.9,3.4,35,0.00,,,0.00,WUHU216HW,2013-06-30 23:51:00,
2013-06-30 16:56:00,86.0,55.1,29.85,SW,225,2.7,3.4,35,0.00,,,0.00,WUHU216HW,2013-06-30 23:56:00,
2013-06-30 17:01:00,86.0,54.3,29.84,North,0,0.7,3.4,34,0.00,,,0.00,WUHU216HW,2013-07-01 00:01:00,
2013-06-30 17:06:00,86.0,54.3,29.85,WNW,293,1.8,3.4,34,0.00,,,0.00,WUHU216HW,2013-07-01 00:06:00,
2013-06-30 17:11:00,85.7,54.0,29.85,West,270,1.1,3.1,34,0.00,,,0.00,WUHU216HW,2013-07-01 00:11:00,
2013-06-30 17:16:00,85.1,54.3,29.85,North,0,1.8,2.5,35,0.00,,,0.00,WUHU216HW,2013-07-01 00:16:00,
2013-06-30 17:22:00,85.0,54.1,29.84,North,0,1.3,3.1,35,0.00,,,0.00,WUHU216HW,2013-07-01 00:22:00,
2013-06-30 17:27:00,84.6,53.8,29.85,SSW,203,1.3,3.1,35,0.00,,,0.00,WUHU216HW,2013-07-01 00:27:00,
2013-06-30 17:32:00,84.6,53.8,29.85,ESE,113,0.9,2.9,35,0.00,,,0.00,WUHU216HW,2013-07-01 00:32:00,
2013-06-30 17:37:00,84.6,53.8,29.85,ENE,68,1.1,2.5,35,0.00,,,0.00,WUHU216HW,2013-07-01 00:37:00,
2013-06-30 17:42:00,84.6,53.8,29.84,NW,315,1.3,2.5,35,0.00,,,0.00,WUHU216HW,2013-07-01 00:42:00,
2013-06-30 17:47:00,84.6,53.8,29.85,North,0,0.4,1.6,35,0.00,,,0.00,WUHU216HW,2013-07-01 00:47:00,
2013-06-30 17:52:00,84.6,53.8,29.85,NW,315,2.5,2.5,35,0.00,,,0.00,WUHU216HW,2013-07-01 00:52:00,
2013-06-30 17:57:00,84.6,53.8,29.84,East,90,1.1,2.5,35,0.00,,,0.00,WUHU216HW,2013-07-01 00:57:00,
2013-06-30 18:02:00,84.6,53.8,29.83,WSW,248,1.3,1.6,35,0.00,,,0.00,WUHU216HW,2013-07-01 01:02:00,
2013-06-30 18:07:00,84.4,53.7,29.84,SSE,158,0.4,1.6,35,0.00,,,0.00,WUHU216HW,2013-07-01 01:07:00,
2013-06-30 18:13:00,84.2,53.5,29.83,NNE,23,0.9,1.6,35,0.00,,,0.00,WUHU216HW,2013-07-01 01:13:00,
2013-06-30 18:18:00,84.1,53.3,29.87,WSW,248,1.1,2.0,35,0.00,,,0.00,WUHU216HW,2013-07-01 01:18:00,
2013-06-30 18:23:00,84.1,53.3,29.87,WSW,248,1.8,3.1,35,0.00,,,0.00,WUHU216HW,2013-07-01 01:23:00,
2013-06-30 18:28:00,84.1,53.3,29.86,NW,315,0.9,4.3,35,0.00,,,0.00,WUHU216HW,2013-07-01 01:28:00,
2013-06-30 18:33:00,83.7,53.0,29.86,WSW,248,2.5,4.3,35,0.00,,,0.00,WUHU216HW,2013-07-01 01:33:00,
2013-06-30 18:38:00,83.3,52.7,29.83,SW,225,0.9,2.5,35,0.00,,,0.00,WUHU216HW,2013-07-01 01:38:00,
2013-06-30 18:43:00,83.2,54.1,29.83,West,270,1.8,2.5,37,0.00,,,0.00,WUHU216HW,2013-07-01 01:43:00,
2013-06-30 18:48:00,82.6,53.6,29.83,NNW,338,1.8,2.2,37,0.00,,,0.00,WUHU216HW,2013-07-01 01:48:00,
2013-06-30 18:53:00,81.7,53.6,29.84,WSW,248,0.4,2.2,38,0.00,,,0.00,WUHU216HW,2013-07-01 01:53:00,
2013-06-30 18:58:00,81.5,53.5,29.83,SW,225,1.8,2.0,38,0.00,,,0.00,WUHU216HW,2013-07-01 01:58:00,
2013-06-30 19:03:00,81.2,53.1,29.83,WSW,248,0.4,2.2,38,0.00,,,0.00,WUHU216HW,2013-07-01 02:03:00,
2013-06-30 19:08:00,81.2,53.9,29.83,WSW,248,0.4,2.5,39,0.00,,,0.00,WUHU216HW,2013-07-01 02:08:00,
2013-06-30 19:13:00,81.0,53.7,29.83,SSW,203,0.4,2.5,39,0.00,,,0.00,WUHU216HW,2013-07-01 02:13:00,
2013-06-30 19:18:00,81.0,53.7,29.83,SSE,158,2.5,2.5,39,0.00,,,0.00,WUHU216HW,2013-07-01 02:18:00,
2013-06-30 19:24:00,81.0,53.7,29.82,WSW,248,2.5,2.5,39,0.00,,,0.00,WUHU216HW,2013-07-01 02:24:00,
2013-06-30 19:29:00,80.8,52.8,29.83,SSW,203,1.1,2.5,38,0.00,,,0.00,WUHU216HW,2013-07-01 02:29:00,
2013-06-30 19:34:00,80.8,52.8,29.83,SSW,203,1.3,2.0,38,0.00,,,0.00,WUHU216HW,2013-07-01 02:34:00,
2013-06-30 19:39:00,81.0,52.9,29.82,SSE,158,0.9,1.8,38,0.00,,,0.00,WUHU216HW,2013-07-01 02:39:00,
2013-06-30 19:44:00,81.0,52.9,29.83,South,180,0.2,1.8,38,0.00,,,0.00,WUHU216HW,2013-07-01 02:44:00,
2013-06-30 19:49:00,81.0,52.9,29.83,SE,135,1.1,1.8,38,0.00,,,0.00,WUHU216HW,2013-07-01 02:49:00,
2013-06-30 19:54:00,81.2,53.1,29.83,SE,135,0.4,1.1,38,0.00,,,0.00,WUHU216HW,2013-07-01 02:54:00,
2013-06-30 19:59:00,81.0,52.9,29.83,West,270,2.0,2.0,38,0.00,,,0.00,WUHU216HW,2013-07-01 02:59:00,
2013-06-30 20:05:00,81.0,52.9,29.82,WSW,248,2.5,2.5,38,0.00,,,0.00,WUHU216HW,2013-07-01 03:05:00,
2013-06-30 20:10:00,80.6,52.7,29.83,West,270,1.8,2.5,38,0.00,,,0.00,WUHU216HW,2013-07-01 03:10:00,
2013-06-30 20:15:00,80.6,52.7,29.83,WSW,248,1.6,1.8,38,0.00,,,0.00,WUHU216HW,2013-07-01 03:15:00,
2013-06-30 20:20:00,80.5,52.5,29.83,WSW,248,1.1,1.8,38,0.00,,,0.00,WUHU216HW,2013-07-01 03:20:00,
2013-06-30 20:25:00,80.3,51.6,29.83,WSW,248,2.5,2.5,37,0.00,,,0.00,WUHU216HW,2013-07-01 03:25:00,
2013-06-30 20:30:00,80.3,52.3,29.83,WSW,248,2.0,2.5,38,0.00,,,0.00,WUHU216HW,2013-07-01 03:30:00,
2013-06-30 20:35:00,80.3,51.6,29.83,WSW,248,1.8,2.5,37,0.00,,,0.00,WUHU216HW,2013-07-01 03:35:00,
2013-06-30 20:40:00,80.3,51.6,29.83,West,270,1.6,2.5,37,0.00,,,0.00,WUHU216HW,2013-07-01 03:40:00,
2013-06-30 20:45:00,80.1,51.4,29.83,WSW,248,2.0,2.5,37,0.00,,,0.00,WUHU216HW,2013-07-01 03:45:00,
2013-06-30 20:51:00,80.1,51.4,29.83,WSW,248,2.2,2.5,37,0.00,,,0.00,WUHU216HW,2013-07-01 03:51:00,
2013-06-30 20:56:00,80.1,51.4,29.83,WSW,248,1.8,2.2,37,0.00,,,0.00,WUHU216HW,2013-07-01 03:56:00,
2013-06-30 21:01:00,80.1,50.6,29.83,West,270,2.7,2.9,36,0.00,,,0.00,WUHU216HW,2013-07-01 04:01:00,
2013-06-30 21:02:00,80.1,50.6,29.83,SW,225,1.6,2.9,36,0.00,,,0.00,WUHU216HW,2013-07-01 04:02:00,
2013-06-30 21:07:00,80.3,50.8,29.83,WSW,248,1.8,2.9,36,0.00,,,0.00,WUHU216HW,2013-07-01 04:07:00,
2013-06-30 21:12:00,80.3,51.6,29.83,WSW,248,1.8,2.9,37,0.00,,,0.00,WUHU216HW,2013-07-01 04:12:00,
2013-06-30 21:17:00,80.1,51.4,29.84,WSW,248,1.8,2.7,37,0.00,,,0.00,WUHU216HW,2013-07-01 04:17:00,
2013-06-30 21:22:00,80.1,51.4,29.83,WSW,248,2.5,2.5,37,0.00,,,0.00,WUHU216HW,2013-07-01 04:22:00,
2013-06-30 21:28:00,79.9,52.0,29.83,West,270,2.7,2.9,38,0.00,,,0.00,WUHU216HW,2013-07-01 04:28:00,
2013-06-30 21:33:00,79.4,51.5,29.83,WSW,248,2.2,2.9,38,0.00,,,0.00,WUHU216HW,2013-07-01 04:33:00,
2013-06-30 21:38:00,79.2,51.3,29.83,WSW,248,2.5,2.9,38,0.00,,,0.00,WUHU216HW,2013-07-01 04:38:00,
2013-06-30 21:43:00,79.2,51.3,29.84,WSW,248,2.5,2.9,38,0.00,,,0.00,WUHU216HW,2013-07-01 04:43:00,
2013-06-30 21:48:00,79.2,51.3,29.83,WSW,248,2.0,2.9,38,0.00,,,0.00,WUHU216HW,2013-07-01 04:48:00,
2013-06-30 21:53:00,79.2,51.3,29.84,WSW,248,2.2,2.5,38,0.00,,,0.00,WUHU216HW,2013-07-01 04:53:00,
2013-06-30 21:58:00,79.0,51.2,29.83,WSW,248,2.9,2.9,38,0.00,,,0.00,WUHU216HW,2013-07-01 04:58:00,
2013-06-30 22:03:00,79.0,51.2,29.83,WSW,248,2.2,2.9,38,0.00,,,0.00,WUHU216HW,2013-07-01 05:03:00,
2013-06-30 22:08:00,78.8,51.0,29.84,West,270,2.5,2.9,38,0.00,,,0.00,WUHU216HW,2013-07-01 05:08:00,
2013-06-30 22:13:00,78.8,51.0,29.83,WSW,248,2.7,3.1,38,0.00,,,0.00,WUHU216HW,2013-07-01 05:13:00,
2013-06-30 22:18:00,78.7,51.7,29.83,WSW,248,2.0,3.1,39,0.00,,,0.00,WUHU216HW,2013-07-01 05:18:00,
2013-06-30 22:23:00,78.5,51.5,29.84,West,270,2.5,3.4,39,0.00,,,0.00,WUHU216HW,2013-07-01 05:23:00,
2013-06-30 22:28:00,77.9,51.8,29.84,WSW,248,2.7,3.4,40,0.00,,,0.00,WUHU216HW,2013-07-01 05:28:00,
2013-06-30 22:33:00,77.4,51.8,29.84,WSW,248,2.7,2.7,41,0.00,,,0.00,WUHU216HW,2013-07-01 05:33:00,
2013-06-30 22:39:00,77.0,52.2,29.84,WSW,248,3.4,3.4,42,0.00,,,0.00,WUHU216HW,2013-07-01 05:39:00,
2013-06-30 22:44:00,76.7,52.5,29.84,WSW,248,2.5,3.4,43,0.00,,,0.00,WUHU216HW,2013-07-01 05:44:00,
2013-06-30 22:49:00,76.3,53.4,29.84,WSW,248,3.4,3.4,45,0.00,,,0.00,WUHU216HW,2013-07-01 05:49:00,
2013-06-30 22:54:00,75.6,53.3,29.85,WSW,248,3.1,3.8,46,0.00,,,0.00,WUHU216HW,2013-07-01 05:54:00,
2013-06-30 22:59:00,74.5,52.9,29.84,WSW,248,3.4,4.0,47,0.00,,,0.00,WUHU216HW,2013-07-01 05:59:00,
2013-06-30 23:04:00,73.6,53.2,29.84,WNW,293,3.8,4.0,49,0.00,,,0.00,WUHU216HW,2013-07-01 06:04:00,
2013-06-30 23:09:00,72.9,52.6,29.84,West,270,4.3,4.3,49,0.00,,,0.00,WUHU216HW,2013-07-01 06:09:00,
2013-06-30 23:14:00,72.5,52.2,29.84,West,270,3.4,4.3,49,0.00,,,0.00,WUHU216HW,2013-07-01 06:14:00,
2013-06-30 23:19:00,72.5,52.2,29.84,WSW,248,3.4,3.8,49,0.00,,,0.00,WUHU216HW,2013-07-01 06:19:00,
2013-06-30 23:24:00,72.5,52.2,29.84,West,270,3.4,3.4,49,0.00,,,0.00,WUHU216HW,2013-07-01 06:24:00,
2013-06-30 23:29:00,72.5,52.8,29.84,West,270,2.9,3.6,50,0.00,,,0.00,WUHU216HW,2013-07-01 06:29:00,
2013-06-30 23:34:00,72.4,52.7,29.83,West,270,3.4,4.3,50,0.00,,,0.00,WUHU216HW,2013-07-01 06:34:00,
2013-06-30 23:39:00,72.0,52.4,29.83,West,270,3.4,4.3,50,0.00,,,0.00,WUHU216HW,2013-07-01 06:39:00,
2013-06-30 23:44:00,71.8,52.2,29.84,West,270,2.9,3.8,50,0.00,,,0.00,WUHU216HW,2013-07-01 06:44:00,
2013-06-30 23:49:00,72.0,52.4,29.85,WSW,248,1.8,3.8,50,0.00,,,0.00,WUHU216HW,2013-07-01 06:49:00,
2013-06-30 23:54:00,72.0,52.8,29.84,WSW,248,2.7,3.1,51,0.00,,,0.00,WUHU216HW,2013-07-01 06:54:00,
2013-06-30 23:59:00,71.8,52.7,29.87,SW,225,1.1,3.1,51,0.00,,,0.00,WUHU216HW,2013-07-01 06:59:00,